TimeEDT,TemperatureF,Dew PointF,Humidity,Sea Level PressureIn,VisibilityMPH,Wind Direction,Wind SpeedMPH,Gust SpeedMPH,PrecipitationIn,Events,Conditions,WindDirDegrees,DateUTC
12:19 AM,53.6,51.8,94,29.72,4.0,NE,12.7,-,0.01,Rain,Light Rain,40,2012-10-02 04:19:00
12:40 AM,53.6,51.8,94,29.71,2.5,NNE,15.0,-,0.04,Rain,Rain,30,2012-10-02 04:40:00
12:54 AM,53.1,52.0,96,29.71,4.0,NE,12.7,-,0.06,Rain,Light Rain,40,2012-10-02 04:54:00
1:15 AM,53.6,51.8,94,29.71,2.5,NNE,13.8,-,0.05,Rain,Heavy Rain,20,2012-10-02 05:15:00
1:28 AM,53.6,51.8,94,29.71,4.0,North,13.8,-,0.09,Rain,Light Rain,10,2012-10-02 05:28:00
1:42 AM,53.6,51.8,94,29.75,2.0,North,9.2,-,0.11,Rain,Heavy Rain,360,2012-10-02 05:42:00
1:54 AM,54.0,52.0,93,29.73,1.8,North,10.4,-,0.27,Rain,Heavy Rain,10,2012-10-02 05:54:00
2:02 AM,53.6,51.8,94,29.73,3.0,North,12.7,-,0.05,Rain,Rain,10,2012-10-02 06:02:00
2:27 AM,53.6,51.8,94,29.73,4.0,NNE,12.7,-,0.06,Rain,Light Rain,20,2012-10-02 06:27:00
2:54 AM,54.0,52.0,93,29.72,2.5,NNE,15.0,-,0.09,Rain,Light Rain,20,2012-10-02 06:54:00
3:30 AM,53.6,51.8,94,29.70,2.5,NE,17.3,29.9,0.03,Rain,Light Rain,50,2012-10-02 07:30:00
3:41 AM,53.6,51.8,94,29.69,4.0,NE,18.4,28.8,0.03,Rain,Light Rain,50,2012-10-02 07:41:00
3:54 AM,54.0,52.0,93,29.69,5.0,NE,18.4,-,0.03,Rain,Light Rain,50,2012-10-02 07:54:00
4:04 AM,53.6,51.8,94,29.69,5.0,NE,18.4,24.2,0.00,Rain,Light Rain,40,2012-10-02 08:04:00
4:33 AM,53.6,51.8,94,29.69,5.0,NE,15.0,23.0,0.01,Rain,Light Rain,50,2012-10-02 08:33:00
4:54 AM,54.0,53.1,97,29.69,3.0,NE,18.4,24.2,0.02,Rain,Light Rain,50,2012-10-02 08:54:00
5:17 AM,53.6,53.6,100,29.70,2.5,NE,13.8,21.9,0.00,Rain,Light Rain,50,2012-10-02 09:17:00
5:54 AM,54.0,53.1,97,29.70,4.0,NE,13.8,-,0.02,Rain,Light Rain,50,2012-10-02 09:54:00
6:54 AM,54.0,53.1,97,29.71,7.0,NE,13.8,-,0.01,,Light Drizzle,40,2012-10-02 10:54:00
7:50 AM,53.6,53.6,100,29.72,2.0,NE,13.8,23.0,0.00,Rain,Light Rain,40,2012-10-02 11:50:00
7:54 AM,54.0,53.1,97,29.72,2.0,NE,15.0,23.0,0.00,,Light Drizzle,40,2012-10-02 11:54:00
8:07 AM,53.6,53.6,100,29.72,1.8,NE,15.0,-,0.00,,Light Drizzle,40,2012-10-02 12:07:00
8:54 AM,54.0,53.1,97,29.74,1.5,NE,13.8,19.6,0.00,,Light Drizzle,50,2012-10-02 12:54:00
9:12 AM,55.4,53.6,94,29.74,2.0,NNE,13.8,-,0.00,,Light Drizzle,30,2012-10-02 13:12:00
9:54 AM,55.0,54.0,96,29.75,2.5,NE,9.2,-,0.00,,Light Drizzle,40,2012-10-02 13:54:00
10:07 AM,55.4,53.6,94,29.74,1.8,NE,12.7,-,0.00,,Light Drizzle,40,2012-10-02 14:07:00
10:31 AM,55.4,53.6,94,29.75,3.0,NE,12.7,-,0.01,,Light Drizzle,40,2012-10-02 14:31:00
10:49 AM,55.4,53.6,94,29.75,2.5,NE,12.7,-,0.01,,Light Drizzle,40,2012-10-02 14:49:00
10:54 AM,55.9,54.0,93,29.75,2.5,NE,13.8,-,0.01,,Light Drizzle,40,2012-10-02 14:54:00
11:34 AM,55.4,55.4,100,29.76,1.8,NE,11.5,-,0.00,,Light Drizzle,50,2012-10-02 15:34:00
11:51 AM,57.2,55.4,94,29.76,1.2,NE,11.5,-,0.00,,Light Drizzle,50,2012-10-02 15:51:00
11:54 AM,57.0,55.0,93,29.76,1.2,NE,9.2,-,0.00,,Light Drizzle,40,2012-10-02 15:54:00
12:54 PM,57.9,57.0,97,29.76,1.2,NE,8.1,-,0.01,,Light Drizzle,50,2012-10-02 16:54:00
1:21 PM,57.2,57.2,100,29.77,2.0,NE,9.2,-,0.00,,Light Drizzle,50,2012-10-02 17:21:00
1:45 PM,59.0,57.2,94,29.77,1.5,NNE,10.4,-,0.00,,Light Drizzle,30,2012-10-02 17:45:00
1:54 PM,59.0,57.9,96,29.76,1.5,NE,11.5,-,0.00,,Light Drizzle,40,2012-10-02 17:54:00
2:12 PM,59.0,57.2,94,29.76,2.5,NE,8.1,-,0.00,,Light Drizzle,50,2012-10-02 18:12:00
2:54 PM,60.1,57.9,93,29.76,2.0,NE,9.2,-,0.00,,Light Drizzle,40,2012-10-02 18:54:00
3:54 PM,60.1,59.0,96,29.76,2.0,NNE,8.1,-,0.00,,Light Drizzle,30,2012-10-02 19:54:00
4:54 PM,61.0,59.0,93,29.77,2.5,NE,6.9,-,0.00,,Light Drizzle,40,2012-10-02 20:54:00
5:10 PM,60.8,59.0,94,29.78,2.5,NNE,6.9,-,0.00,,Light Drizzle,30,2012-10-02 21:10:00
5:33 PM,60.8,60.8,100,29.79,2.0,NE,5.8,-,0.00,,Light Drizzle,40,2012-10-02 21:33:00
5:48 PM,60.8,60.8,100,29.80,0.8,NE,3.5,-,0.00,Rain,Light Rain,40,2012-10-02 21:48:00
5:54 PM,61.0,60.1,97,29.80,0.8,Calm,Calm,-,0.01,Rain,Light Rain,0,2012-10-02 21:54:00
6:23 PM,60.8,60.8,100,29.80,1.2,Calm,Calm,-,0.01,Rain,Light Rain,0,2012-10-02 22:23:00
6:34 PM,60.8,60.8,100,29.80,3.0,Calm,Calm,-,0.01,,Overcast,0,2012-10-02 22:34:00
6:54 PM,61.0,60.1,97,29.81,5.0,Calm,Calm,-,0.01,,Overcast,0,2012-10-02 22:54:00
7:04 PM,60.8,59.0,94,29.81,5.0,Calm,Calm,-,N/A,,Overcast,0,2012-10-02 23:04:00
7:54 PM,60.8,60.8,100,29.83,5.0,SE,4.6,-,N/A,,Overcast,130,2012-10-02 23:54:00
8:04 PM,60.8,59.0,94,29.84,6.0,SE,3.5,-,N/A,,Overcast,140,2012-10-03 00:04:00
8:54 PM,60.1,59.0,96,29.85,8.0,SSE,4.6,-,N/A,,Overcast,160,2012-10-03 00:54:00
9:54 PM,60.8,57.2,88,29.87,8.0,South,6.9,-,N/A,,Overcast,170,2012-10-03 01:54:00
10:32 PM,60.8,57.2,88,29.88,9.0,SSW,6.9,-,0.00,,Overcast,200,2012-10-03 02:32:00
10:54 PM,59.0,57.9,96,29.88,9.0,South,8.1,-,0.00,,Overcast,180,2012-10-03 02:54:00
11:08 PM,59.0,57.2,94,29.89,9.0,South,9.2,-,N/A,,Overcast,180,2012-10-03 03:08:00
11:46 PM,57.2,57.2,100,29.89,8.0,South,5.8,-,N/A,,Overcast,180,2012-10-03 03:46:00
11:54 PM,57.9,55.9,93,29.89,8.0,SSE,6.9,-,N/A,,Overcast,160,2012-10-03 03:54:00